Ortonville, MN

7:05 AM CDT on August 18, 2017 (GMT -0500)
Ortonville Municipal-Martinson

Weather History for KVVV - November, 2013

Change the Weather History Date:

Thursday, November 14, 2013

  Actual Average (KAQP) Record (KAQP)
Temperature  
Mean Temperature 42 °F -  
Max Temperature 50 °F 37 °F 66 °F (2015)
Min Temperature 33 °F 21 °F -5 °F (2014)
Degree Days  
Heating Degree Days 24    
Moisture  
Dew Point 32 °F    
Average Humidity 69    
Maximum Humidity 81    
Minimum Humidity 54    
Precipitation  
Precipitation 0.00 in - - ()
Sea Level Pressure  
Sea Level Pressure 29.81 in    
Wind  
Wind Speed 7 mph (West)    
Max Wind Speed 17 mph    
Max Gust Speed 24 mph    
Visibility 10 miles    
Events      
Averages and records for this station are not official NWS values.
T = Trace of Precipitation, MM = Missing Value Source: NWS Daily Summary

Daily Weather History Graph

Daily Weather History Graph

Search for Another Location

Airport or City:

Trip Planner

Search our weather history database for the weather conditions in past years. The results will help you decide how hot, cold, wet, or windy it might be!

Date:

Astronomy

Nov. 14, 2013 Rise Set
Actual Time 7:23 AM CST 4:56 PM CST
Civil Twilight 6:51 AM CST 5:28 PM CST
Nautical Twilight 6:15 AM CST 6:04 PM CST
Astronomical Twilight 5:40 AM CST 6:39 PM CST
Moon 3:25 PM CST (11/14) 4:11 AM CST (11/14)
Length of Visible Light 10h 37m
Length of Day
9h 33m
Waxing Gibbous, 92% of the Moon is Illuminated
Nov 14
Waxing Gibbous
Nov 17
Full
Nov 25
Last Quarter
Dec 2
New
Dec 9
First Quarter

Hourly Weather History & Observations

Time (CST) Temp. Windchill Dew Point Humidity Pressure Visibility Wind Dir Wind Speed Gust Speed Precip Events Conditions
12:14 AM 41.0 °F 37.1 °F 32.0 °F 70% 29.86 in 10.0 mi WNW 5.8 mph - N/A   Mostly Cloudy
12:34 AM 42.8 °F 38.0 °F 32.0 °F 66% 29.85 in 10.0 mi WNW 8.1 mph - N/A   Scattered Clouds
12:54 AM 42.8 °F 37.0 °F 33.8 °F 70% 29.85 in 10.0 mi WNW 10.4 mph - N/A   Scattered Clouds
1:14 AM 42.8 °F 37.5 °F 32.0 °F 66% 29.83 in 10.0 mi WNW 9.2 mph - N/A   Scattered Clouds
1:34 AM 42.8 °F 38.0 °F 32.0 °F 66% 29.84 in 10.0 mi WNW 8.1 mph - N/A   Scattered Clouds
1:54 AM 42.8 °F 38.6 °F 32.0 °F 66% 29.83 in 10.0 mi WNW 6.9 mph - N/A   Scattered Clouds
2:14 AM 41.0 °F 36.4 °F 32.0 °F 70% 29.84 in 10.0 mi WNW 6.9 mph - N/A   Clear
2:34 AM 42.8 °F 39.3 °F 33.8 °F 70% 29.84 in 10.0 mi NW 5.8 mph - N/A   Clear
2:54 AM 41.0 °F 35.8 °F 32.0 °F 70% 29.84 in 10.0 mi NW 8.1 mph - N/A   Clear
3:14 AM 41.0 °F 37.1 °F 32.0 °F 70% 29.83 in 10.0 mi WNW 5.8 mph - N/A   Clear
3:33 AM 39.2 °F 37.0 °F 32.0 °F 75% 29.83 in 10.0 mi WNW 3.5 mph - N/A   Scattered Clouds
3:54 AM 39.2 °F 35.9 °F 32.0 °F 75% 29.83 in 10.0 mi West 4.6 mph - N/A   Clear
4:14 AM 37.4 °F 34.9 °F 30.2 °F 75% 29.82 in 10.0 mi SW 3.5 mph - N/A   Clear
4:33 AM 37.4 °F 34.9 °F 30.2 °F 75% 29.82 in 10.0 mi WSW 3.5 mph - N/A   Clear
4:54 AM 37.4 °F 34.9 °F 30.2 °F 75% 29.82 in 10.0 mi West 3.5 mph - N/A   Clear
5:14 AM 37.4 °F 34.9 °F 30.2 °F 75% 29.81 in 10.0 mi WSW 3.5 mph - N/A   Clear
5:33 AM 37.4 °F 33.8 °F 30.2 °F 75% 29.81 in 10.0 mi WSW 4.6 mph - N/A   Clear
5:54 AM 39.2 °F 35.9 °F 32.0 °F 75% 29.81 in 10.0 mi WSW 4.6 mph - N/A   Clear
6:14 AM 39.2 °F 35.9 °F 32.0 °F 75% 29.82 in 10.0 mi WSW 4.6 mph - N/A   Clear
6:34 AM 39.2 °F 34.2 °F 32.0 °F 75% 29.81 in 10.0 mi WSW 6.9 mph - N/A   Mostly Cloudy
6:54 AM 39.2 °F 35.0 °F 32.0 °F 75% 29.81 in 10.0 mi SW 5.8 mph - N/A   Mostly Cloudy
7:13 AM 39.2 °F 35.9 °F 32.0 °F 75% 29.81 in 10.0 mi SW 4.6 mph - N/A   Scattered Clouds
7:34 AM 41.0 °F 38.0 °F 33.8 °F 76% 29.82 in 10.0 mi WSW 4.6 mph - N/A   Clear
7:54 AM 41.0 °F 39.0 °F 33.8 °F 76% 29.81 in 10.0 mi SSW 3.5 mph - N/A   Scattered Clouds
8:13 AM 42.8 °F 38.6 °F 33.8 °F 70% 29.82 in 10.0 mi West 6.9 mph - N/A   Clear
8:34 AM 41.0 °F 39.0 °F 33.8 °F 76% 29.82 in 10.0 mi West 3.5 mph - N/A   Clear
8:54 AM 42.8 °F 38.0 °F 33.8 °F 70% 29.83 in 10.0 mi WNW 8.1 mph - N/A   Clear
9:13 AM 42.8 °F 37.5 °F 33.8 °F 70% 29.83 in 10.0 mi WNW 9.2 mph - N/A   Clear
9:34 AM 42.8 °F 37.0 °F 33.8 °F 70% 29.82 in 10.0 mi WNW 10.4 mph - N/A   Clear
9:54 AM 44.6 °F 40.7 °F 33.8 °F 66% 29.82 in 10.0 mi NW 6.9 mph - N/A   Clear
10:13 AM 46.4 °F 42.4 °F 33.8 °F 62% 29.82 in 10.0 mi WNW 8.1 mph - N/A   Clear
10:34 AM 46.4 °F 41.5 °F 33.8 °F 62% 29.82 in 10.0 mi WNW 10.4 mph - N/A   Clear
10:54 AM 48.2 °F - 33.8 °F 58% 29.82 in 10.0 mi WNW 12.7 mph - N/A   Clear
11:13 AM 48.2 °F - 33.8 °F 58% 29.83 in 10.0 mi WNW 13.8 mph - N/A   Clear
11:34 AM 48.2 °F - 33.8 °F 58% 29.82 in 10.0 mi WNW 12.7 mph 18.4 mph N/A   Clear
11:53 AM 48.2 °F - 33.8 °F 58% 29.82 in 10.0 mi WNW 17.3 mph 24.2 mph N/A   Clear
12:14 PM 48.2 °F - 33.8 °F 58% 29.81 in 10.0 mi NW 17.3 mph - N/A   Clear
12:34 PM 48.2 °F - 33.8 °F 58% 29.81 in 10.0 mi NW 15.0 mph 20.7 mph N/A   Clear
12:53 PM 48.2 °F - 33.8 °F 58% 29.80 in 10.0 mi NW 12.7 mph - N/A   Clear
1:14 PM 48.2 °F - 33.8 °F 58% 29.80 in 10.0 mi NW 15.0 mph 18.4 mph N/A   Clear
1:33 PM 50.0 °F - 33.8 °F 54% 29.79 in 10.0 mi NW 13.8 mph 18.4 mph N/A   Clear
1:54 PM 50.0 °F - 33.8 °F 54% 29.79 in 10.0 mi NW 13.8 mph - N/A   Clear
2:14 PM 50.0 °F - 33.8 °F 54% 29.79 in 10.0 mi NW 12.7 mph 17.3 mph N/A   Clear
2:33 PM 50.0 °F - 33.8 °F 54% 29.79 in 10.0 mi NW 9.2 mph - N/A   Clear
2:54 PM 50.0 °F - 33.8 °F 54% 29.79 in 10.0 mi NNW 9.2 mph - N/A   Clear
3:14 PM 48.2 °F - 33.8 °F 58% 29.79 in 10.0 mi NW 8.1 mph - N/A   Clear
3:33 PM 48.2 °F - 35.6 °F 62% 29.80 in 10.0 mi WNW 8.1 mph - N/A   Clear
3:54 PM 48.2 °F - 35.6 °F 62% 29.80 in 10.0 mi WNW 5.8 mph - N/A   Clear
4:14 PM 48.2 °F - 35.6 °F 62% 29.80 in 10.0 mi WNW 5.8 mph - N/A   Clear
4:34 PM 48.2 °F - 33.8 °F 58% 29.80 in 10.0 mi West 3.5 mph - N/A   Clear
4:54 PM 46.4 °F 45.2 °F 33.8 °F 62% 29.80 in 10.0 mi West 3.5 mph - N/A   Clear
5:14 PM 44.6 °F 43.1 °F 33.8 °F 66% 29.81 in 10.0 mi West 3.5 mph - N/A   Clear
5:34 PM 44.6 °F 42.2 °F 32.0 °F 61% 29.81 in 10.0 mi WSW 4.6 mph - N/A   Clear
5:54 PM 42.8 °F 39.3 °F 32.0 °F 66% 29.81 in 10.0 mi WSW 5.8 mph - N/A   Clear
6:14 PM 42.8 °F 39.3 °F 32.0 °F 66% 29.81 in 10.0 mi West 5.8 mph - N/A   Clear
6:34 PM 41.0 °F 39.0 °F 32.0 °F 70% 29.81 in 10.0 mi West 3.5 mph - N/A   Clear
6:54 PM 39.2 °F 35.9 °F 32.0 °F 75% 29.81 in 10.0 mi SW 4.6 mph - N/A   Clear
7:14 PM 39.2 °F 37.0 °F 32.0 °F 75% 29.81 in 10.0 mi SSW 3.5 mph - N/A   Clear
7:34 PM 41.0 °F - 32.0 °F 70% 29.80 in 10.0 mi Calm Calm - N/A   Clear
7:54 PM 41.0 °F 38.0 °F 32.0 °F 70% 29.80 in 10.0 mi SSW 4.6 mph - N/A   Clear
8:13 PM 39.2 °F 35.9 °F 32.0 °F 75% 29.80 in 10.0 mi South 4.6 mph - N/A   Clear
8:34 PM 37.4 °F 34.9 °F 30.2 °F 75% 29.80 in 10.0 mi South 3.5 mph - N/A   Clear
8:54 PM 35.6 °F 30.7 °F 28.4 °F 75% 29.80 in 10.0 mi South 5.8 mph - N/A   Clear
9:13 PM 35.6 °F 30.7 °F 30.2 °F 81% 29.80 in 10.0 mi South 5.8 mph - N/A   Clear
9:34 PM 35.6 °F 31.7 °F 30.2 °F 81% 29.80 in 10.0 mi SW 4.6 mph - N/A   Clear
9:54 PM 33.8 °F 28.6 °F 28.4 °F 81% 29.79 in 10.0 mi SSW 5.8 mph - N/A   Clear
10:14 PM 35.6 °F 30.7 °F 30.2 °F 81% 29.79 in 10.0 mi SSW 5.8 mph - N/A   Clear
10:34 PM 35.6 °F 32.8 °F 30.2 °F 81% 29.79 in 10.0 mi SSW 3.5 mph - N/A   Clear
10:54 PM 35.6 °F 32.8 °F 30.2 °F 81% 29.79 in 10.0 mi SSW 3.5 mph - N/A   Clear
11:14 PM 35.6 °F 31.7 °F 30.2 °F 81% 29.79 in 10.0 mi SW 4.6 mph - N/A   Clear
11:34 PM 35.6 °F - 30.2 °F 81% 29.79 in 10.0 mi Calm Calm - N/A   Clear
11:54 PM 35.6 °F 30.7 °F 30.2 °F 81% 29.79 in 10.0 mi West 5.8 mph - N/A   Clear